Weather History for Thief River Falls, MN

Change the Weather History Date:

Saturday, December 28, 2013

  Actual Average Record
Temperature  
Mean Temperature 6 °F -  
Max Temperature 28 °F 13 °F 37 °F (1980)
Min Temperature -16 °F 0 °F -23 °F (1976)
Degree Days  
Heating Degree Days 59    
Moisture  
Dew Point 8 °F    
Average Humidity 82    
Maximum Humidity 93    
Minimum Humidity 64    
Precipitation  
Precipitation 0.00 in - - ()
Sea Level Pressure  
Sea Level Pressure 29.98 in    
Wind  
Wind Speed 11 mph (NNE)    
Max Wind Speed 26 mph    
Max Gust Speed 34 mph    
Visibility 5 miles    
Events      
Averages and records for this station are not official NWS values.
T = Trace of Precipitation, MM = Missing Value Source: NWS Daily Summary

Daily Weather History Graph

Daily Weather History Graph

Search for Another Location

Airport:

Trip Planner

Search our weather history database for the weather conditions in past years. The results will help you decide how hot, cold, wet, or windy it might be!

Date:

Astronomy

Dec. 28, 2013 Rise Set
Actual Time 8:14 AM CST 4:38 PM CST
Civil Twilight 7:38 AM CST 5:14 PM CST
Nautical Twilight 6:58 AM CST 5:54 PM CST
Astronomical Twilight 6:20 AM CST 6:32 PM CST
Moon 3:42 AM CST (12/28) 1:39 PM CST (12/28)
Length of Visible Light 9h 36m
Length of Day
8h 24m
Waning Crescent, 19% of the Moon is Illuminated
Dec 28
Waning Crescent
Jan 1
New
Jan 7
First Quarter
Jan 15
Full
Jan 23
Last Quarter

Hourly Weather History & Observations

Time (CST) Temp. Windchill Dew Point Humidity Pressure Visibility Wind Dir Wind Speed Gust Speed Precip Events Conditions
12:15 AM 26.6 °F 22.6 °F 23.0 °F 86% 29.88 in 5.0 mi SW 3.5 mph - N/A   Unknown
12:35 AM 26.6 °F - 24.8 °F 93% 29.87 in 5.0 mi Calm Calm - N/A   Unknown
12:55 AM 26.6 °F - 24.8 °F 93% 29.87 in 5.0 mi Calm Calm - N/A   Unknown
1:15 AM 26.6 °F - 24.8 °F 93% 29.86 in 4.0 mi Calm Calm - N/A   Unknown
1:35 AM 26.6 °F - 24.8 °F 93% 29.85 in 4.0 mi Calm Calm - N/A   Unknown
1:55 AM 26.6 °F - 24.8 °F 93% 29.85 in 3.0 mi Calm Calm - N/A   Unknown
2:15 AM 26.6 °F - 24.8 °F 93% 29.84 in 3.0 mi Calm Calm - N/A   Unknown
2:35 AM 26.6 °F 21.2 °F 24.8 °F 93% 29.83 in 4.0 mi East 4.6 mph - N/A   Unknown
2:55 AM 26.6 °F 18.2 °F 24.8 °F 93% 29.81 in 8.0 mi East 8.1 mph - N/A   Unknown
3:15 AM 26.6 °F 19.1 °F 24.8 °F 93% 29.81 in 9.0 mi East 6.9 mph - N/A   Unknown
3:35 AM 26.6 °F 18.2 °F 24.8 °F 93% 29.79 in 9.0 mi East 8.1 mph - N/A   Unknown
3:55 AM 28.4 °F 20.4 °F 24.8 °F 86% 29.79 in 9.0 mi East 8.1 mph - N/A   Unknown
4:15 AM 28.4 °F 21.2 °F 24.8 °F 86% 29.78 in 10.0 mi ESE 6.9 mph - N/A   Unknown
4:35 AM 28.4 °F 21.2 °F 26.6 °F 93% 29.77 in 10.0 mi ESE 6.9 mph - N/A   Unknown
4:55 AM 28.4 °F 21.2 °F 26.6 °F 93% 29.77 in 9.0 mi ESE 6.9 mph - N/A   Unknown
5:15 AM 28.4 °F 21.2 °F 26.6 °F 93% 29.77 in 4.0 mi East 6.9 mph - N/A   Unknown
5:35 AM 28.4 °F 21.2 °F 26.6 °F 93% 29.76 in 2.0 mi East 6.9 mph - N/A   Unknown
5:55 AM 28.4 °F 20.4 °F 26.6 °F 93% 29.76 in 1.2 mi East 8.1 mph - N/A   Unknown
6:15 AM 28.4 °F 20.4 °F 26.6 °F 93% 29.75 in 1.0 mi East 8.1 mph - N/A   Unknown
6:35 AM 28.4 °F 20.4 °F 26.6 °F 93% 29.75 in 1.0 mi East 8.1 mph - N/A   Unknown
6:55 AM 28.4 °F 19.7 °F 26.6 °F 93% 29.75 in 1.2 mi ENE 9.2 mph - N/A   Unknown
7:15 AM 26.6 °F 16.2 °F 24.8 °F 93% 29.75 in 1.2 mi NE 11.5 mph - N/A   Unknown
7:35 AM 26.6 °F 16.8 °F 24.8 °F 93% 29.76 in 1.2 mi NE 10.4 mph - N/A   Unknown
7:55 AM 26.6 °F 16.2 °F 24.8 °F 93% 29.77 in 1.8 mi NE 11.5 mph - N/A   Unknown
8:15 AM 26.6 °F 13.8 °F 24.8 °F 93% 29.78 in 1.0 mi NNE 17.3 mph - N/A   Unknown
8:35 AM 24.8 °F 11.9 °F 21.2 °F 86% 29.79 in 1.0 mi NE 16.1 mph - N/A   Unknown
8:55 AM 24.8 °F 12.9 °F 21.2 °F 86% 29.79 in 1.2 mi NE 13.8 mph - N/A   Unknown
9:15 AM 23.0 °F 8.3 °F 19.4 °F 86% 29.80 in 1.5 mi NE 19.6 mph - N/A   Unknown
9:35 AM 23.0 °F 8.7 °F 19.4 °F 86% 29.79 in 1.8 mi NE 18.4 mph - N/A   Unknown
9:55 AM 23.0 °F 9.2 °F 19.4 °F 86% 29.80 in 3.0 mi NE 17.3 mph 23.0 mph N/A   Unknown
10:15 AM 23.0 °F 9.2 °F 19.4 °F 86% 29.81 in 3.0 mi NE 17.3 mph 23.0 mph N/A   Unknown
10:35 AM 23.0 °F 10.1 °F 19.4 °F 86% 29.83 in 4.0 mi NE 15.0 mph 20.7 mph N/A   Unknown
10:55 AM 23.0 °F 9.6 °F 19.4 °F 86% 29.83 in 3.0 mi NE 16.1 mph - N/A   Unknown
11:15 AM 21.2 °F 6.4 °F 17.6 °F 86% 29.85 in 3.0 mi NNE 18.4 mph 24.2 mph N/A   Unknown
11:35 AM 19.4 °F 3.6 °F 14.0 °F 80% 29.86 in 1.5 mi North 19.6 mph - N/A   Unknown
11:55 AM 15.8 °F -2.3 °F 10.4 °F 79% 29.88 in 2.0 mi North 23.0 mph 26.5 mph N/A   Unknown
12:15 PM 15.8 °F -1.5 °F 10.4 °F 79% 29.88 in 9.0 mi NNE 20.7 mph 26.5 mph N/A   Unknown
12:35 PM 15.8 °F -2.3 °F 8.6 °F 73% 29.88 in 10.0 mi North 23.0 mph 26.5 mph N/A   Unknown
12:55 PM 14.0 °F -3.9 °F 6.8 °F 73% 29.89 in 10.0 mi NNE 20.7 mph 29.9 mph N/A   Unknown
1:15 PM 12.2 °F -7.1 °F 6.8 °F 79% 29.89 in 10.0 mi NNE 23.0 mph 29.9 mph N/A   Unknown
1:35 PM 12.2 °F -7.1 °F 6.8 °F 79% 29.91 in 8.0 mi NNE 23.0 mph 31.1 mph N/A   Unknown
1:55 PM 12.2 °F -7.1 °F 5.0 °F 73% 29.93 in 1.2 mi North 23.0 mph 31.1 mph N/A   Unknown
2:15 PM 10.4 °F -9.9 °F 5.0 °F 79% 29.95 in 1.2 mi North 24.2 mph 29.9 mph N/A   Unknown
2:35 PM - - - N/A% 29.98 in 2.5 mi North 24.2 mph 32.2 mph N/A   Unknown
2:55 PM - - - N/A% 29.99 in 2.0 mi North 25.3 mph 34.5 mph N/A   Unknown
3:15 PM 8.6 °F -11.9 °F 1.4 °F 73% 30.01 in 1.5 mi North 23.0 mph 29.9 mph N/A   Unknown
3:35 PM 8.6 °F -13.1 °F 1.4 °F 73% 30.02 in 1.0 mi North 26.5 mph 32.2 mph N/A   Unknown
3:55 PM 6.8 °F -12.9 °F 1.4 °F 79% 30.05 in 0.8 mi North 19.6 mph 32.2 mph N/A   Unknown
4:15 PM 6.8 °F -14.3 °F -0.4 °F 72% 30.07 in 0.8 mi North 23.0 mph 32.2 mph N/A   Unknown
4:35 PM 6.8 °F -14.7 °F -0.4 °F 72% 30.10 in 1.0 mi North 24.2 mph 29.9 mph N/A   Unknown
4:55 PM 5.0 °F -15.7 °F -2.2 °F 72% 30.11 in 1.5 mi North 20.7 mph 27.6 mph N/A   Unknown
5:15 PM 3.2 °F -18.6 °F -0.4 °F 85% 30.13 in 3.0 mi North 21.9 mph 32.2 mph N/A   Unknown
5:35 PM 3.2 °F -19.0 °F -4.0 °F 72% 30.16 in 3.0 mi North 23.0 mph 31.1 mph N/A   Unknown
5:55 PM 1.4 °F -19.4 °F -5.8 °F 72% 30.18 in 4.0 mi NNW 18.4 mph 26.5 mph N/A   Unknown
6:15 PM -0.4 °F -22.8 °F -7.6 °F 72% 30.19 in 5.0 mi North 20.7 mph - N/A   Unknown
6:35 PM -2.2 °F -25.2 °F -9.4 °F 71% 30.21 in 2.5 mi NNW 20.7 mph 25.3 mph N/A   Unknown
6:55 PM -2.2 °F -24.7 °F -7.6 °F 78% 30.23 in 2.5 mi NNW 19.6 mph 27.6 mph N/A   Unknown
7:15 PM -4.0 °F -26.4 °F -13.0 °F 65% 30.24 in 7.0 mi NNW 18.4 mph 23.0 mph N/A   Unknown
7:35 PM -5.8 °F -28.2 °F -13.0 °F 71% 30.26 in 9.0 mi North 17.3 mph - N/A   Unknown
7:55 PM -5.8 °F -28.8 °F -11.2 °F 77% 30.26 in 4.0 mi NNW 18.4 mph - N/A   Unknown
8:15 PM -7.6 °F -32.3 °F -14.8 °F 71% 30.28 in 5.0 mi NNW 20.7 mph 27.6 mph N/A   Unknown
8:35 PM -7.6 °F -32.3 °F -13.0 °F 77% 30.29 in 5.0 mi North 20.7 mph 26.5 mph N/A   Unknown
8:55 PM -9.4 °F -31.4 °F -16.6 °F 71% 30.29 in 10.0 mi NNW 15.0 mph 21.9 mph N/A   Unknown
9:15 PM -9.4 °F -33.5 °F -14.8 °F 77% 30.31 in 5.0 mi NNW 18.4 mph - N/A   Unknown
9:35 PM -11.2 °F -37.0 °F -20.2 °F 64% 30.31 in 9.0 mi NNW 20.7 mph - N/A   Unknown
9:55 PM -13.0 °F -39.4 °F -18.4 °F 77% 30.32 in 9.0 mi NNW 20.7 mph - N/A   Unknown
10:15 PM -13.0 °F -38.8 °F -20.2 °F 70% 30.34 in 10.0 mi NNW 19.6 mph - N/A   Unknown
10:35 PM -14.8 °F -39.1 °F -20.2 °F 77% 30.35 in 10.0 mi NNW 16.1 mph - N/A   Unknown
10:55 PM -14.8 °F -39.1 °F -20.2 °F 77% 30.35 in 10.0 mi NNW 16.1 mph - N/A   Unknown
11:15 PM -14.8 °F -41.2 °F -23.8 °F 64% 30.37 in 10.0 mi NNW 19.6 mph - N/A   Unknown
11:35 PM -16.6 °F -41.4 °F -22.0 °F 76% 30.37 in 10.0 mi NNW 16.1 mph - N/A   Unknown
11:55 PM -16.6 °F -39.8 °F -23.8 °F 70% 30.37 in 10.0 mi North 13.8 mph - N/A   Unknown